| time (UTC) | temp C | wind direction | speed KPH | gust KPH | rain 1hr cm | rain 24hr cm | rain mn cm | humidity % | barometer mb |
| 20260906064526 | 22 | 167 | 0.0 | 1.6 | 0.00 | 0.00 | 0.00 | 76 | 1020.6 |
| 20260906063521 | 21 | 171 | 0.0 | 1.6 | 0.00 | 0.00 | 0.00 | 75 | 1020.5 |
| 20260906062536 | 21 | 0.0 | 0.0 | 0.00 | 0.00 | 0.00 | 81 | 1020.6 | |
| 20260906061530 | 21 | 0.0 | 0.0 | 0.00 | 0.00 | 0.00 | 83 | 1020.6 | |
| 20260906060524 | 20 | 0.0 | 0.0 | 0.00 | 0.00 | 0.00 | 84 | 1020.4 | |
| 20260906055518 | 20 | 0.0 | 0.0 | 0.00 | 0.00 | 0.00 | 85 | 1020.4 | |
| 20260906054533 | 20 | 0.0 | 0.0 | 0.00 | 0.00 | 0.00 | 86 | 1020.3 | |
| 20260906053528 | 20 | 0.0 | 0.0 | 0.00 | 0.00 | 0.00 | 87 | 1020.3 | |
| 20260906052542 | 20 | 0.0 | 0.0 | 0.00 | 0.00 | 0.00 | 88 | 1020.0 | |
| 20260906051518 | 20 | 0.0 | 0.0 | 0.00 | 0.00 | 0.00 | 88 | 1020.2 | |
| 20260906050532 | 20 | 0.0 | 0.0 | 0.00 | 0.00 | 0.00 | 88 | 1020.2 | |
| 20260906045527 | 20 | 58 | 0.0 | 1.6 | 0.00 | 0.00 | 0.00 | 89 | 1020.1 |
| 20260906044521 | 20 | 0.0 | 0.0 | 0.00 | 0.00 | 0.00 | 88 | 1020.1 | |
| 20260906043536 | 20 | 0.0 | 0.0 | 0.00 | 0.00 | 0.00 | 87 | 1020.0 | |
| 20260906042531 | 20 | 0.0 | 0.0 | 0.00 | 0.00 | 0.00 | 88 | 1020.1 | |
| 20260906041525 | 20 | 0.0 | 0.0 | 0.00 | 0.00 | 0.00 | 88 | 1020.0 | |
| 20260906040540 | 20 | 0.0 | 0.0 | 0.00 | 0.00 | 0.00 | 87 | 1020.0 | |
| 20260906035534 | 20 | 57 | 0.0 | 1.6 | 0.00 | 0.00 | 0.00 | 88 | 1019.9 |
| 20260906034529 | 20 | 0.0 | 0.0 | 0.00 | 0.00 | 0.00 | 87 | 1019.7 | |
| 20260906033523 | 20 | 84 | 0.0 | 1.6 | 0.00 | 0.00 | 0.00 | 86 | 1019.7 |
| 20260906032518 | 20 | 43 | 0.0 | 1.6 | 0.00 | 0.00 | 0.00 | 86 | 1019.8 |
| 20260906031534 | 20 | 0.0 | 0.0 | 0.00 | 0.00 | 0.00 | 87 | 1019.8 | |
| 20260906030529 | 20 | 0.0 | 0.0 | 0.00 | 0.00 | 0.00 | 87 | 1019.8 | |
| 20260906025523 | 20 | 0.0 | 0.0 | 0.00 | 0.00 | 0.00 | 85 | 1019.9 | |
| 20260906024516 | 20 | 49 | 0.0 | 1.6 | 0.00 | 0.00 | 0.00 | 86 | 1020.0 |
| 20260906023532 | 21 | 20 | 0.0 | 1.6 | 0.00 | 0.00 | 0.00 | 86 | 1020.0 |
| 20260906022546 | 21 | 33 | 0.0 | 1.6 | 0.00 | 0.00 | 0.00 | 87 | 1020.0 |
| 20260906021520 | 21 | 51 | 0.0 | 1.6 | 0.00 | 0.00 | 0.00 | 87 | 1020.0 |
| 20260906020534 | 21 | 0.0 | 0.0 | 0.00 | 0.00 | 0.00 | 85 | 1019.8 | |
| 20260906015529 | 21 | 43 | 0.0 | 1.6 | 0.00 | 0.00 | 0.00 | 86 | 1019.9 |
| 20260906014523 | 21 | 0.0 | 0.0 | 0.00 | 0.00 | 0.00 | 85 | 1019.8 | |
| 20260906013519 | 21 | 0.0 | 0.0 | 0.00 | 0.00 | 0.00 | 83 | 1019.9 | |
| 20260906012553 | 22 | 354 | 0.0 | 3.2 | 0.00 | 0.00 | 0.00 | 83 | 1020.0 |
| 20260906011527 | 21 | 22 | 0.0 | 3.2 | 0.00 | 0.00 | 0.00 | 82 | 1020.1 |
| 20260906010522 | 21 | 0.0 | 0.0 | 0.00 | 0.00 | 0.00 | 81 | 1020.1 | |
| 20260906005517 | 21 | 0.0 | 0.0 | 0.00 | 0.00 | 0.00 | 83 | 1019.9 | |
| 20260906004532 | 21 | 0.0 | 0.0 | 0.00 | 0.00 | 0.00 | 83 | 1019.9 | |
| 20260906003526 | 21 | 0.0 | 0.0 | 0.00 | 0.00 | 0.00 | 81 | 1020.0 | |
| 20260906002521 | 21 | 0.0 | 0.0 | 0.00 | 0.00 | 0.00 | 82 | 1020.1 | |
| 20260906001535 | 22 | 0.0 | 0.0 | 0.00 | 0.00 | 0.00 | 80 | 1020.1 | |
| 20260906000529 | 22 | 147 | 0.0 | 1.6 | 0.00 | 0.00 | 0.00 | 78 | 1020.2 |
| 20260905235524 | 22 | 18 | 1.6 | 4.8 | 0.00 | 0.00 | 0.00 | 77 | 1020.3 |
| 20260905234542 | 23 | 65 | 0.0 | 1.6 | 0.00 | 0.00 | 0.00 | 77 | 1020.3 |
| 20260905233534 | 23 | 357 | 1.6 | 4.8 | 0.00 | 0.00 | 0.00 | 77 | 1020.3 |
| 20260905232529 | 23 | 358 | 1.6 | 4.8 | 0.00 | 0.00 | 0.00 | 77 | 1020.3 |
| 20260905231526 | 23 | 8 | 1.6 | 4.8 | 0.00 | 0.00 | 0.00 | 76 | 1020.2 |
| 20260905230519 | 23 | 348 | 3.2 | 6.4 | 0.00 | 0.00 | 0.00 | 76 | 1020.1 |
| 20260905225533 | 23 | 337 | 1.6 | 3.2 | 0.00 | 0.00 | 0.00 | 76 | 1020.3 |
| 20260905224528 | 23 | 357 | 3.2 | 4.8 | 0.00 | 0.00 | 0.00 | 76 | 1020.4 |
| 20260905223524 | 23 | 357 | 3.2 | 4.8 | 0.00 | 0.00 | 0.00 | 75 | 1020.3 |
| 20260905222516 | 23 | 349 | 1.6 | 6.4 | 0.00 | 0.00 | 0.00 | 75 | 1020.4 |
| 20260905221532 | 23 | 353 | 1.6 | 4.8 | 0.00 | 0.00 | 0.00 | 74 | 1020.3 |
| 20260905220527 | 23 | 353 | 3.2 | 4.8 | 0.00 | 0.00 | 0.00 | 74 | 1020.3 |
| 20260905215522 | 23 | 28 | 1.6 | 4.8 | 0.00 | 0.00 | 0.00 | 73 | 1020.3 |
| 20260905214518 | 23 | 350 | 3.2 | 9.7 | 0.00 | 0.00 | 0.00 | 74 | 1020.1 |
| 20260905213552 | 23 | 356 | 3.2 | 6.4 | 0.00 | 0.00 | 0.00 | 74 | 1020.2 |
| 20260905212525 | 23 | 7 | 0.0 | 3.2 | 0.00 | 0.00 | 0.00 | 75 | 1020.2 |
| 20260905211519 | 23 | 150 | 0.0 | 1.6 | 0.00 | 0.00 | 0.00 | 76 | 1020.2 |
| 20260905205529 | 23 | 85 | 0.0 | 3.2 | 0.00 | 0.00 | 0.00 | 77 | 1020.1 |
| 20260905204526 | 23 | 21 | 3.2 | 9.7 | 0.00 | 0.00 | 0.00 | 78 | 1020.0 |
| 20260905203518 | 23 | 266 | 1.6 | 4.8 | 0.00 | 0.00 | 0.00 | 77 | 1020.0 |
| 20260905202533 | 23 | 355 | 3.2 | 6.4 | 0.00 | 0.00 | 0.00 | 76 | 1020.1 |
| 20260905201527 | 23 | 345 | 3.2 | 9.7 | 0.00 | 0.00 | 0.00 | 75 | 1020.2 |
| 20260905200522 | 23 | 321 | 1.6 | 4.8 | 0.00 | 0.00 | 0.00 | 75 | 1020.1 |
| 20260905195517 | 23 | 339 | 4.8 | 9.7 | 0.00 | 0.00 | 0.00 | 74 | 1020.3 |
| 20260905194531 | 23 | 271 | 3.2 | 6.4 | 0.00 | 0.00 | 0.00 | 73 | 1020.0 |
| 20260905193526 | 24 | 359 | 3.2 | 14.5 | 0.00 | 0.00 | 0.00 | 72 | 1020.1 |
| 20260905192540 | 24 | 343 | 1.6 | 6.4 | 0.00 | 0.00 | 0.00 | 71 | 1019.9 |
| 20260905191534 | 24 | 348 | 3.2 | 11.3 | 0.00 | 0.00 | 0.00 | 71 | 1019.8 |
| 20260905190529 | 25 | 343 | 3.2 | 11.3 | 0.00 | 0.00 | 0.00 | 69 | 1019.9 |
| 20260905185543 | 25 | 343 | 4.8 | 14.5 | 0.00 | 0.00 | 0.00 | 64 | 1019.8 |
| 20260905184517 | 25 | 348 | 4.8 | 11.3 | 0.00 | 0.00 | 0.00 | 63 | 1019.6 |
| 20260905183532 | 25 | 355 | 3.2 | 12.9 | 0.00 | 0.00 | 0.00 | 62 | 1019.5 |
| 20260905182646 | 26 | 359 | 4.8 | 12.9 | 0.00 | 0.00 | 0.00 | 62 | 1019.5 |
| 20260905181541 | 26 | 350 | 3.2 | 12.9 | 0.00 | 0.00 | 0.00 | 60 | 1019.5 |
| 20260905180516 | 26 | 345 | 1.6 | 4.8 | 0.00 | 0.00 | 0.00 | 55 | 1019.4 |
| 20260905175531 | 27 | 359 | 3.2 | 6.4 | 0.00 | 0.00 | 0.00 | 52 | 1019.3 |
| 20260905174526 | 27 | 347 | 4.8 | 9.7 | 0.00 | 0.00 | 0.00 | 50 | 1019.3 |
| 20260905173520 | 27 | 343 | 4.8 | 11.3 | 0.00 | 0.00 | 0.00 | 50 | 1019.1 |
| 20260905172535 | 27 | 348 | 3.2 | 9.7 | 0.00 | 0.00 | 0.00 | 50 | 1019.1 |
| 20260905171549 | 28 | 358 | 1.6 | 6.4 | 0.00 | 0.00 | 0.00 | 50 | 1019.1 |
| 20260905170524 | 28 | 18 | 3.2 | 6.4 | 0.00 | 0.00 | 0.00 | 49 | 1019.0 |
| 20260905165518 | 28 | 9 | 3.2 | 9.7 | 0.00 | 0.00 | 0.00 | 49 | 1019.1 |
| 20260905164535 | 29 | 311 | 3.2 | 11.3 | 0.00 | 0.00 | 0.00 | 47 | 1019.0 |
| 20260905163526 | 30 | 342 | 1.6 | 4.8 | 0.00 | 0.00 | 0.00 | 45 | 1019.1 |
| 20260905162521 | 30 | 285 | 1.6 | 9.7 | 0.00 | 0.00 | 0.00 | 41 | 1018.9 |
| 20260905161517 | 31 | 234 | 1.6 | 9.7 | 0.00 | 0.00 | 0.00 | 39 | 1019.0 |
| 20260905160533 | 31 | 216 | 1.6 | 4.8 | 0.00 | 0.00 | 0.00 | 41 | 1019.0 |
| 20260905155527 | 31 | 263 | 1.6 | 9.7 | 0.00 | 0.00 | 0.00 | 43 | 1019.0 |
| 20260905154521 | 31 | 344 | 3.2 | 11.3 | 0.00 | 0.00 | 0.00 | 44 | 1019.2 |
| 20260905153516 | 31 | 235 | 1.6 | 6.4 | 0.00 | 0.00 | 0.00 | 43 | 1019.1 |
| 20260905152531 | 31 | 256 | 1.6 | 9.7 | 0.00 | 0.00 | 0.00 | 46 | 1019.1 |
| 20260905151525 | 31 | 1 | 4.8 | 12.9 | 0.00 | 0.00 | 0.00 | 47 | 1019.0 |
| 20260905150519 | 31 | 340 | 4.8 | 12.9 | 0.00 | 0.00 | 0.00 | 46 | 1019.3 |
| 20260905145534 | 31 | 218 | 3.2 | 4.8 | 0.00 | 0.00 | 0.00 | 43 | 1019.1 |
| 20260905144548 | 31 | 356 | 6.4 | 12.9 | 0.00 | 0.00 | 0.00 | 42 | 1019.2 |
| 20260905143523 | 32 | 283 | 4.8 | 11.3 | 0.00 | 0.00 | 0.00 | 39 | 1019.1 |
| 20260905142518 | 32 | 234 | 3.2 | 9.7 | 0.00 | 0.00 | 0.00 | 37 | 1019.2 |
| 20260905141553 | 33 | 270 | 3.2 | 9.7 | 0.00 | 0.00 | 0.00 | 36 | 1019.2 |
| 20260905140548 | 32 | 332 | 3.2 | 11.3 | 0.00 | 0.00 | 0.00 | 35 | 1019.1 |
| 20260905135521 | 33 | 280 | 3.2 | 9.7 | 0.00 | 0.00 | 0.00 | 34 | 1019.3 |
| 20260905134535 | 33 | 293 | 3.2 | 9.7 | 0.00 | 0.00 | 0.00 | 33 | 1019.3 |
| 20260905133531 | 33 | 272 | 4.8 | 12.9 | 0.00 | 0.00 | 0.00 | 31 | 1019.2 |
| 20260905132546 | 33 | 254 | 3.2 | 4.8 | 0.00 | 0.00 | 0.00 | 31 | 1019.4 |
| 20260905131519 | 33 | 234 | 3.2 | 9.7 | 0.00 | 0.00 | 0.00 | 32 | 1019.4 |
| 20260905130554 | 33 | 252 | 3.2 | 11.3 | 0.00 | 0.00 | 0.00 | 33 | 1019.3 |
| 20260905125528 | 33 | 8 | 4.8 | 12.9 | 0.00 | 0.00 | 0.00 | 32 | 1019.4 |
| 20260905124523 | 34 | 255 | 3.2 | 4.8 | 0.00 | 0.00 | 0.00 | 32 | 1019.4 |
| 20260905123519 | 34 | 217 | 1.6 | 4.8 | 0.00 | 0.00 | 0.00 | 31 | 1019.4 |
| 20260905122533 | 35 | 311 | 1.6 | 3.2 | 0.00 | 0.00 | 0.00 | 29 | 1019.6 |
| 20260905121547 | 33 | 14 | 3.2 | 11.3 | 0.00 | 0.00 | 0.00 | 31 | 1019.7 |
| 20260905120521 | 34 | 340 | 1.6 | 6.4 | 0.00 | 0.00 | 0.00 | 31 | 1019.7 |
| 20260905115517 | 33 | 164 | 3.2 | 9.7 | 0.00 | 0.00 | 0.00 | 31 | 1019.8 |
| 20260905114531 | 33 | 228 | 3.2 | 6.4 | 0.00 | 0.00 | 0.00 | 31 | 1019.7 |
| 20260905113526 | 33 | 186 | 1.6 | 4.8 | 0.00 | 0.00 | 0.00 | 31 | 1019.8 |
| 20260905112520 | 33 | 138 | 3.2 | 6.4 | 0.00 | 0.00 | 0.00 | 31 | 1019.7 |
| 20260905111555 | 33 | 149 | 3.2 | 6.4 | 0.00 | 0.00 | 0.00 | 30 | 1019.8 |
| 20260905110531 | 33 | 193 | 1.6 | 11.3 | 0.00 | 0.00 | 0.00 | 31 | 1019.9 |
| 20260905105523 | 32 | 185 | 3.2 | 6.4 | 0.00 | 0.00 | 0.00 | 30 | 1019.9 |
| 20260905104518 | 33 | 261 | 1.6 | 6.4 | 0.00 | 0.00 | 0.00 | 30 | 1019.9 |
| 20260905103533 | 32 | 210 | 1.6 | 4.8 | 0.00 | 0.00 | 0.00 | 29 | 1019.9 |
| 20260905102527 | 33 | 205 | 3.2 | 4.8 | 0.00 | 0.00 | 0.00 | 29 | 1019.9 |
| 20260905101522 | 32 | 198 | 3.2 | 9.7 | 0.00 | 0.00 | 0.00 | 30 | 1020.1 |
| 20260905100517 | 32 | 191 | 1.6 | 4.8 | 0.00 | 0.00 | 0.00 | 30 | 1020.2 |
| 20260905095532 | 32 | 195 | 1.6 | 6.4 | 0.00 | 0.00 | 0.00 | 34 | 1020.2 |
| 20260905094526 | 32 | 146 | 1.6 | 4.8 | 0.00 | 0.00 | 0.00 | 33 | 1020.2 |
| 20260905093521 | 32 | 152 | 0.0 | 3.2 | 0.00 | 0.00 | 0.00 | 32 | 1020.1 |
| 20260905092534 | 32 | 177 | 1.6 | 4.8 | 0.00 | 0.00 | 0.00 | 33 | 1020.1 |
| 20260905091534 | 32 | 196 | 0.0 | 3.2 | 0.00 | 0.00 | 0.00 | 32 | 1020.2 |
| 20260905090524 | 32 | 193 | 1.6 | 4.8 | 0.00 | 0.00 | 0.00 | 34 | 1020.1 |
| 20260905085519 | 31 | 178 | 1.6 | 4.8 | 0.00 | 0.00 | 0.00 | 36 | 1020.2 |
| 20260905084536 | 31 | 163 | 0.0 | 1.6 | 0.00 | 0.00 | 0.00 | 37 | 1020.2 |
| 20260905083528 | 31 | 158 | 0.0 | 1.6 | 0.00 | 0.00 | 0.00 | 38 | 1020.2 |
| 20260905082523 | 30 | 163 | 1.6 | 3.2 | 0.00 | 0.00 | 0.00 | 40 | 1020.1 |
| 20260905081517 | 30 | 164 | 1.6 | 3.2 | 0.00 | 0.00 | 0.00 | 40 | 1019.9 |
| 20260905080534 | 30 | 163 | 1.6 | 3.2 | 0.00 | 0.00 | 0.00 | 41 | 1019.9 |
| 20260905075527 | 30 | 178 | 0.0 | 3.2 | 0.00 | 0.00 | 0.00 | 41 | 1019.7 |
| 20260905074522 | 29 | 161 | 0.0 | 1.6 | 0.00 | 0.00 | 0.00 | 41 | 1020.0 |
| 20260905073517 | 28 | 180 | 0.0 | 1.6 | 0.00 | 0.00 | 0.00 | 44 | 1019.9 |
| 20260905072531 | 26 | 147 | 0.0 | 1.6 | 0.00 | 0.00 | 0.00 | 45 | 1020.0 |
| 20260905071526 | 25 | 124 | 0.0 | 3.2 | 0.00 | 0.00 | 0.00 | 47 | 1020.1 |
| 20260905070522 | 25 | 0.0 | 0.0 | 0.00 | 0.00 | 0.00 | 53 | 1020.0 | |
| 20260905065519 | 24 | 0.0 | 0.0 | 0.00 | 0.00 | 0.00 | 55 | 1019.9 |